When you browse on this site, cookies collect data to enhance your experience and personalize the content and advertising you see.
Visit our Privacy Policy to learn more. By continuing to use the site, you agree to this use of cookies and data.
  • In Österreich
  • Länderverzeichnis
  • Für 7 Tage
  • Wassertemperatur
  • Wetterkarte
  • News
  • Widgets
  • user-avatar
    Anmelden

    Stündliche Wetter Buda (Lenin)

    Heute, 6 Juni, Samstag

    Zeit Temperatur Niederschläge Wind Luftdruck Luftfeuchtigkeit
    00:00 +14°C° 0 mm 3 m/S 742 mmHg 95%
    01:00 +14°C° 0 mm 3 m/S 742 mmHg 95%
    02:00 +13°C° 0 mm 3 m/S 742 mmHg 96%
    03:00 +14°C° 0 mm 3 m/S 742 mmHg 96%
    04:00 +14°C° 0 mm 4 m/S 742 mmHg 95%
    05:00 +14°C° 0 mm 4 m/S 742 mmHg 95%
    06:00 +17°C° 0 mm 4 m/S 742 mmHg 93%
    07:00 +18°C° 0 mm 4 m/S 742 mmHg 90%
    08:00 +19°C° 0 mm 4 m/S 743 mmHg 88%
    09:00 +20°C° 0 mm 4 m/S 743 mmHg 86%
    10:00 +21°C° 0 mm 4 m/S 743 mmHg 84%
    11:00 +21°C° 0 mm 4 m/S 743 mmHg 82%
    12:00 +22°C° 0.1 mm 5 m/S 743 mmHg 80%
    13:00 +23°C° 0.1 mm 5 m/S 743 mmHg 77%
    14:00 +23°C° 0.1 mm 5 m/S 743 mmHg 75%
    15:00 +23°C° 0.5 mm 5 m/S 743 mmHg 77%
    16:00 +23°C° 0.5 mm 4 m/S 744 mmHg 79%
    17:00 +23°C° 0.5 mm 4 m/S 744 mmHg 81%
    18:00 +22°C° 0.2 mm 3 m/S 744 mmHg 83%
    19:00 +20°C° 0.2 mm 2 m/S 745 mmHg 85%
    20:00 +19°C° 0.2 mm 2 m/S 745 mmHg 88%
    21:00 +18°C° 0 mm 2 m/S 746 mmHg 88%
    22:00 +17°C° 0 mm 2 m/S 746 mmHg 88%
    23:00 +16°C° 0 mm 2 m/S 746 mmHg 88%

    Morgen, 7 Juni, Sonntag

    Zeit Temperatur Niederschläge Wind Luftdruck Luftfeuchtigkeit
    00:00 +16°C° 0 mm 1 m/S 747 mmHg 88%
    01:00 +15°C° 0 mm 1 m/S 747 mmHg 89%
    02:00 +15°C° 0 mm 1 m/S 747 mmHg 89%
    03:00 +15°C° 0 mm 1 m/S 747 mmHg 89%
    04:00 +15°C° 0 mm 1 m/S 748 mmHg 89%
    05:00 +16°C° 0 mm 1 m/S 748 mmHg 90%
    06:00 +17°C° 0 mm 2 m/S 748 mmHg 89%
    07:00 +18°C° 0 mm 2 m/S 748 mmHg 88%
    08:00 +19°C° 0 mm 2 m/S 748 mmHg 87%
    09:00 +20°C° 0 mm 3 m/S 748 mmHg 81%
    10:00 +22°C° 0 mm 3 m/S 748 mmHg 75%
    11:00 +25°C° 0 mm 3 m/S 749 mmHg 69%
    12:00 +26°C° 0.2 mm 3 m/S 748 mmHg 68%
    13:00 +26°C° 0.2 mm 3 m/S 748 mmHg 68%
    14:00 +27°C° 0.2 mm 3 m/S 748 mmHg 68%
    15:00 +27°C° 0.8 mm 3 m/S 748 mmHg 71%
    16:00 +27°C° 0.8 mm 3 m/S 748 mmHg 74%
    17:00 +27°C° 0.8 mm 3 m/S 748 mmHg 76%
    18:00 +25°C° 0 mm 3 m/S 748 mmHg 79%
    19:00 +24°C° 0 mm 3 m/S 747 mmHg 82%
    20:00 +21°C° 0 mm 3 m/S 747 mmHg 84%
    21:00 +20°C° 0 mm 3 m/S 748 mmHg 87%
    22:00 +19°C° 0 mm 3 m/S 748 mmHg 89%
    23:00 +19°C° 0 mm 3 m/S 748 mmHg 91%

    übermorgen, 8 Juni, Montag

    Zeit Temperatur Niederschläge Wind Luftdruck Luftfeuchtigkeit
    00:00 +18°C° 0 mm 3 m/S 748 mmHg 92%
    01:00 +18°C° 0 mm 3 m/S 748 mmHg 93%
    02:00 +18°C° 0 mm 2 m/S 748 mmHg 94%
    03:00 +18°C° 0 mm 2 m/S 748 mmHg 93%
    04:00 +18°C° 0 mm 3 m/S 748 mmHg 93%
    05:00 +18°C° 0 mm 3 m/S 748 mmHg 93%
    06:00 +19°C° 0 mm 3 m/S 748 mmHg 88%
    07:00 +21°C° 0 mm 3 m/S 748 mmHg 83%
    08:00 +22°C° 0 mm 4 m/S 748 mmHg 79%
    09:00 +25°C° 0 mm 4 m/S 748 mmHg 74%
    10:00 +26°C° 0 mm 4 m/S 748 mmHg 69%
    11:00 +27°C° 0 mm 4 m/S 748 mmHg 64%
    12:00 +28°C° 0 mm 4 m/S 748 mmHg 61%
    13:00 +28°C° 0 mm 4 m/S 748 mmHg 59%
    14:00 +28°C° 0 mm 4 m/S 748 mmHg 57%
    15:00 +28°C° 0 mm 4 m/S 747 mmHg 61%
    16:00 +28°C° 0 mm 3 m/S 747 mmHg 64%
    17:00 +27°C° 0 mm 3 m/S 747 mmHg 68%
    18:00 +26°C° 0.1 mm 3 m/S 747 mmHg 74%
    19:00 +24°C° 0.1 mm 3 m/S 747 mmHg 79%
    20:00 +22°C° 0.1 mm 3 m/S 747 mmHg 85%
    21:00 +21°C° 0 mm 3 m/S 747 mmHg 87%
    22:00 +20°C° 0 mm 2 m/S 747 mmHg 89%
    23:00 +20°C° 0 mm 2 m/S 748 mmHg 92%

    9 Juni, Dienstag

    Zeit Temperatur Niederschläge Wind Luftdruck Luftfeuchtigkeit
    00:00 +19°C° 0 mm 2 m/S 748 mmHg 92%
    01:00 +19°C° 0 mm 2 m/S 748 mmHg 93%
    02:00 +19°C° 0 mm 2 m/S 748 mmHg 93%
    03:00 +19°C° 0 mm 2 m/S 748 mmHg 93%
    04:00 +19°C° 0 mm 2 m/S 748 mmHg 93%
    05:00 +19°C° 0 mm 2 m/S 748 mmHg 94%
    06:00 +20°C° 0 mm 2 m/S 748 mmHg 89%
    07:00 +23°C° 0 mm 2 m/S 748 mmHg 84%
    08:00 +25°C° 0 mm 3 m/S 748 mmHg 79%
    09:00 +26°C° 0 mm 3 m/S 748 mmHg 73%
    10:00 +27°C° 0 mm 3 m/S 748 mmHg 67%
    11:00 +28°C° 0 mm 3 m/S 748 mmHg 62%
    12:00 +29°C° 0 mm 3 m/S 748 mmHg 59%
    13:00 +29°C° 0 mm 3 m/S 748 mmHg 57%
    14:00 +30°C° 0 mm 2 m/S 748 mmHg 54%
    15:00 +29°C° 0 mm 2 m/S 748 mmHg 58%
    16:00 +29°C° 0 mm 2 m/S 747 mmHg 61%
    17:00 +28°C° 0 mm 2 m/S 747 mmHg 65%
    18:00 +27°C° 0.1 mm 2 m/S 748 mmHg 69%
    19:00 +25°C° 0.1 mm 2 m/S 748 mmHg 73%
    20:00 +24°C° 0.1 mm 2 m/S 748 mmHg 77%
    21:00 +23°C° 0 mm 2 m/S 748 mmHg 80%
    22:00 +22°C° 0 mm 1 m/S 748 mmHg 82%
    23:00 +21°C° 0 mm 1 m/S 748 mmHg 85%

    10 Juni, Mittwoch

    Zeit Temperatur Niederschläge Wind Luftdruck Luftfeuchtigkeit
    00:00 +21°C° 0 mm 1 m/S 748 mmHg 86%
    01:00 +20°C° 0 mm 1 m/S 748 mmHg 87%
    02:00 +20°C° 0 mm 1 m/S 748 mmHg 88%
    03:00 +20°C° 0 mm 1 m/S 748 mmHg 88%
    04:00 +20°C° 0 mm 1 m/S 748 mmHg 88%
    05:00 +20°C° 0 mm 2 m/S 748 mmHg 88%
    06:00 +21°C° 0 mm 2 m/S 748 mmHg 84%
    07:00 +24°C° 0 mm 2 m/S 748 mmHg 81%
    08:00 +25°C° 0 mm 2 m/S 748 mmHg 77%
    09:00 +26°C° 0.2 mm 2 m/S 748 mmHg 72%
    10:00 +28°C° 0.2 mm 2 m/S 748 mmHg 67%
    11:00 +29°C° 0.2 mm 2 m/S 748 mmHg 62%
    12:00 +29°C° 0.1 mm 2 m/S 748 mmHg 59%
    13:00 +30°C° 0.1 mm 3 m/S 747 mmHg 57%
    14:00 +30°C° 0.1 mm 3 m/S 747 mmHg 55%
    15:00 +30°C° 0.3 mm 2 m/S 747 mmHg 59%
    16:00 +29°C° 0.3 mm 2 m/S 747 mmHg 62%
    17:00 +29°C° 0.3 mm 2 m/S 746 mmHg 65%
    18:00 +27°C° 0.2 mm 2 m/S 746 mmHg 70%
    19:00 +26°C° 0.2 mm 2 m/S 747 mmHg 75%
    20:00 +24°C° 0.2 mm 2 m/S 747 mmHg 80%
    21:00 +23°C° 0 mm 2 m/S 747 mmHg 82%
    22:00 +21°C° 0 mm 2 m/S 747 mmHg 85%
    23:00 +20°C° 0 mm 2 m/S 747 mmHg 88%

    11 Juni, Donnerstag

    Zeit Temperatur Niederschläge Wind Luftdruck Luftfeuchtigkeit
    00:00 +20°C° 0 mm 2 m/S 746 mmHg 89%
    01:00 +19°C° 0 mm 2 m/S 746 mmHg 90%
    02:00 +19°C° 0 mm 2 m/S 746 mmHg 91%
    03:00 +19°C° 0 mm 2 m/S 746 mmHg 91%
    04:00 +19°C° 0 mm 2 m/S 746 mmHg 92%
    05:00 +20°C° 0 mm 2 m/S 746 mmHg 92%
    06:00 +21°C° 0.2 mm 3 m/S 746 mmHg 88%
    07:00 +24°C° 0.2 mm 3 m/S 746 mmHg 84%
    08:00 +25°C° 0.2 mm 3 m/S 746 mmHg 80%
    09:00 +27°C° 0.4 mm 4 m/S 746 mmHg 74%
    10:00 +28°C° 0.4 mm 4 m/S 746 mmHg 68%
    11:00 +29°C° 0.4 mm 4 m/S 746 mmHg 62%
    12:00 +29°C° 0.4 mm 4 m/S 746 mmHg 61%
    13:00 +30°C° 0.4 mm 4 m/S 745 mmHg 60%
    14:00 +30°C° 0.4 mm 3 m/S 745 mmHg 60%
    15:00 +30°C° 0.4 mm 3 m/S 745 mmHg 63%
    16:00 +29°C° 0.4 mm 3 m/S 744 mmHg 67%
    17:00 +29°C° 0.4 mm 3 m/S 744 mmHg 70%
    18:00 +27°C° 0.2 mm 3 m/S 744 mmHg 75%
    19:00 +26°C° 0.2 mm 2 m/S 744 mmHg 79%
    20:00 +24°C° 0.2 mm 2 m/S 744 mmHg 84%
    21:00 +23°C° 0 mm 2 m/S 744 mmHg 86%
    22:00 +23°C° 0 mm 2 m/S 744 mmHg 88%
    23:00 +21°C° 0 mm 2 m/S 744 mmHg 90%
    Mehr zeigen